Location: Beaver Meadows
(40.3729°N, 105.6140°W)
Time: 23:29:35
(UTC-06:00)

Iridium 67 - Visible Passes

Search period start: 28 August 2016 00:00
Search period end: 07 September 2016 00:00
Orbit: 776 x 779 km, 86.4° (Epoch: 28 August)

Date Brightness Start Highest point End Pass type
(mag) Time Alt. Az. Time Alt. Az. Time Alt. Az.
28 Aug 8.0 01:08:41 16° NNE 01:08:41 16° NNE 01:09:55 10° NNE visible
28 Aug 7.8 02:49:09 16° NNW 02:49:09 16° NNW 02:50:28 10° NNW visible
29 Aug 8.3 00:35:22 10° NE 00:35:22 10° NE 00:35:28 10° NE visible
29 Aug 7.7 02:15:50 19° NNW 02:15:50 19° NNW 02:17:25 10° N visible
30 Aug 7.9 01:42:31 19° N 01:42:31 19° N 01:44:00 10° N visible
31 Aug 8.1 01:09:11 16° NNE 01:09:11 16° NNE 01:10:17 10° NNE visible
31 Aug 8.1 02:49:40 11° NNW 02:49:40 11° NNW 02:50:01 10° NNW visible
01 Sep 8.3 00:35:51 11° NNE 00:35:51 11° NNE 00:36:12 10° NNE visible
01 Sep 8.0 02:16:20 15° NNW 02:16:20 15° NNW 02:17:16 10° NNW visible
02 Sep 8.1 01:43:00 16° N 01:43:00 16° N 01:44:03 10° N visible
03 Sep 8.2 01:09:39 15° N 01:09:39 15° N 01:10:32 10° N visible
04 Sep 8.3 00:36:18 12° NNE 00:36:18 12° NNE 00:36:41 10° NNE visible
04 Sep 8.3 02:16:47 11° NNW 02:16:47 11° NNW 02:16:58 10° NNW visible
05 Sep 8.3 01:43:26 13° NNW 01:43:26 13° NNW 01:44:00 10° N visible
06 Sep 8.3 01:10:04 13° N 01:10:04 13° N 01:10:40 10° N visible
